Theta_e
318 318 319 319 318 320 323 324 319 318 319 313 313 315 314 317 317 318 318 317 318 317 315 314 314 313 315 316 316 316 316 317 317 314 314 320 324 322 322 325 325 326 335 338 342 344 343 344 344 344 344 342 343 343 343 343 343 342 341 340 339 340 341 340 340 340 340 339 339 339 339 339 338 338 336 335 335 336 336 337 338 338 339 339 339 338 338 338 336 334 330 328 327 325 325 325 325
320 320 319 318 319 323 324 322 317 314 314 311 313 315 314 317 317 319 319 318 318 316 313 313 314 313 313 313 315 316 317 316 316 315 316 320 322 323 323 325 326 326 334 338 341 344 343 344 343 343 343 342 343 343 343 343 343 342 341 341 340 339 341 340 340 339 340 339 339 339 338 338 338 337 336 335 334 335 336 337 338 337 338 338 338 337 337 337 334 332 327 322 322 322 322 323 324
320 321 319 319 321 323 323 320 316 311 311 310 312 316 316 317 317 319 317 317 316 314 313 313 314 314 315 315 316 316 317 315 314 315 317 321 323 324 323 326 327 327 333 338 341 343 344 343 342 343 341 341 342 342 342 343 343 342 341 341 340 339 339 340 340 340 339 338 338 338 338 338 337 335 335 335 332 332 334 336 338 337 337 337 337 336 336 335 334 331 325 320 321 322 320 319 317
320 320 318 321 323 322 322 319 316 311 310 310 310 316 317 318 318 317 316 316 314 313 314 315 316 315 316 318 316 316 317 316 315 315 319 324 323 324 323 326 327 326 331 337 341 342 344 343 341 341 340 341 341 341 342 342 343 342 341 341 340 339 339 340 340 339 339 338 338 338 338 338 337 335 335 334 330 330 331 334 336 336 336 336 336 335 335 333 333 331 326 325 326 326 323 322 313
318 319 317 321 325 321 321 319 317 313 310 311 311 315 317 317 318 317 316 316 313 314 315 316 317 315 315 316 316 317 316 316 316 315 320 323 322 324 325 326 328 327 330 336 341 342 343 342 341 341 340 341 341 340 341 342 342 342 342 341 340 340 340 340 340 339 338 338 338 337 338 338 337 335 334 332 330 330 328 331 333 335 335 336 336 335 334 333 333 332 329 328 328 326 322 323 314
318 319 318 320 321 319 320 316 313 313 313 315 313 315 317 315 316 316 316 316 314 314 313 315 316 315 316 315 315 315 315 315 317 318 320 323 322 324 325 325 328 330 330 336 341 342 342 341 341 342 341 340 341 339 339 341 341 341 341 341 341 340 340 339 339 339 337 336 337 338 337 337 335 333 333 332 331 330 328 329 332 333 334 335 336 335 334 333 332 331 330 328 326 324 318 319 313
318 320 321 321 320 320 319 313 312 314 314 316 315 316 316 315 314 314 317 317 315 314 313 314 313 315 316 314 314 314 314 314 316 322 322 323 323 324 326 325 326 329 329 332 338 341 341 340 340 341 341 340 341 339 339 340 340 341 340 341 340 340 339 339 339 339 338 335 334 335 335 334 333 334 334 332 331 329 328 329 332 334 334 335 335 334 334 331 330 330 329 327 324 323 317 313 306
318 320 322 323 322 322 319 315 315 316 315 314 315 316 315 315 313 314 317 316 315 314 314 314 313 315 314 313 315 314 314 314 318 325 326 324 324 326 326 326 328 328 328 329 335 339 340 339 339 341 341 341 340 339 339 338 339 340 340 340 340 339 339 339 338 338 338 337 334 333 333 333 333 335 335 334 332 329 330 330 332 334 334 335 334 332 331 329 328 328 326 325 325 324 320 310 300
318 319 322 323 320 320 317 316 317 317 317 315 315 315 315 314 314 314 316 315 314 314 314 314 314 314 314 314 315 316 316 317 322 327 327 326 326 327 327 328 330 329 329 330 332 337 339 338 339 340 340 340 339 339 338 338 339 339 340 340 339 339 338 338 338 337 337 337 335 334 336 335 334 335 335 335 334 330 331 332 332 333 334 333 331 329 327 328 328 326 326 326 326 324 321 311 299
320 319 322 323 319 316 314 315 317 317 317 315 315 315 314 313 313 314 315 315 313 314 313 312 314 314 314 315 315 316 314 315 321 325 327 328 328 329 329 330 331 331 332 332 334 337 338 337 337 340 340 339 339 338 338 337 338 339 339 340 339 338 338 337 337 337 336 336 335 336 337 336 334 334 335 336 335 332 331 333 333 333 333 331 329 328 328 329 328 326 326 326 326 323 321 314 301
321 319 321 320 315 313 312 314 316 317 317 315 315 314 314 313 313 313 314 314 312 313 313 312 315 315 314 315 315 314 312 314 318 321 328 330 329 330 331 331 331 332 333 334 336 337 337 336 335 338 339 339 338 338 338 338 338 338 339 339 339 338 338 337 336 336 335 335 335 335 336 336 335 334 335 335 336 334 332 333 333 333 332 330 329 330 330 330 328 327 326 325 325 323 321 316 304
319 320 321 318 314 314 314 315 316 318 317 316 315 313 312 312 313 314 315 314 313 314 314 313 314 313 314 315 315 313 312 314 316 320 328 329 329 329 329 331 331 332 334 334 335 336 337 337 335 337 338 338 338 338 337 337 338 338 338 339 339 338 338 336 335 335 335 334 334 335 335 335 334 334 335 335 336 335 333 333 333 332 331 330 331 331 330 328 327 326 326 325 325 323 321 317 307
320 321 320 317 316 318 317 317 317 318 317 316 315 312 310 311 314 315 315 315 314 315 314 313 313 313 315 315 314 313 312 312 315 321 326 328 328 327 327 328 330 331 333 334 336 336 337 337 337 338 338 337 337 337 337 337 338 338 339 339 339 339 338 337 335 334 335 334 333 335 336 335 334 334 335 335 336 335 334 334 334 332 331 332 332 331 330 328 326 325 325 325 324 323 320 317 308
320 319 319 317 316 318 318 317 317 316 315 316 314 311 310 312 313 312 315 316 315 314 313 311 312 313 314 314 313 313 312 310 315 322 324 327 326 326 327 326 328 329 331 333 335 336 336 337 338 339 338 337 337 337 337 337 337 337 338 339 339 340 338 338 336 334 334 334 334 335 335 335 335 334 335 335 335 336 335 335 334 333 332 333 332 330 330 329 327 325 325 325 324 323 321 318 310
318 317 319 318 316 317 317 318 318 316 315 316 313 310 312 312 311 312 314 315 315 312 310 311 311 313 314 314 314 313 309 308 315 320 319 324 325 324 326 327 327 327 330 331 333 335 335 336 336 338 338 338 338 338 337 337 337 336 337 338 338 339 339 338 337 334 334 335 335 335 335 336 335 335 334 334 335 335 335 334 335 334 333 333 332 331 330 329 328 325 324 324 323 323 322 319 313
315 316 319 317 316 316 317 317 318 317 315 316 312 309 313 312 310 313 312 311 313 311 311 312 310 311 312 312 311 308 306 307 313 315 314 319 321 320 320 322 324 324 327 329 332 334 335 336 335 336 337 337 338 337 338 337 337 336 336 337 337 337 338 339 337 336 334 335 335 335 335 334 335 334 333 333 334 334 334 333 333 334 334 333 332 331 330 329 328 326 323 322 322 323 323 321 316
314 317 316 314 315 316 317 318 317 317 315 315 313 311 315 315 311 312 310 309 312 313 312 311 309 309 309 308 306 304 305 306 309 312 312 313 314 315 314 315 316 317 320 322 326 329 333 335 335 335 335 336 337 337 337 337 337 336 335 336 336 336 337 338 337 337 336 334 334 334 333 333 333 334 334 333 332 332 333 332 332 333 333 334 332 330 330 330 329 327 323 322 321 322 323 322 318
316 317 314 312 316 317 317 319 316 316 317 315 314 312 315 316 314 312 311 311 312 313 312 309 308 308 307 306 304 304 305 306 307 309 310 310 310 311 311 311 311 312 313 314 317 321 326 331 334 335 335 335 337 337 336 337 337 336 336 336 335 335 335 335 336 336 337 336 335 333 333 333 333 334 334 333 332 332 333 332 332 332 332 333 332 330 330 329 329 327 325 324 321 319 322 323 320
316 317 314 313 317 316 315 317 315 316 316 315 313 311 312 315 314 312 313 315 313 314 314 311 309 308 307 306 305 305 305 306 306 307 308 308 308 309 309 309 310 310 311 312 312 314 318 323 329 333 334 335 335 336 336 336 337 336 336 336 335 336 336 336 336 335 336 338 336 334 334 334 333 333 334 333 332 332 332 332 331 331 332 332 332 330 330 329 329 328 326 325 321 318 321 323 322
316 317 316 315 316 314 313 315 314 314 314 315 314 310 312 314 312 313 315 315 314 315 314 312 312 311 308 307 305 305 305 305 306 306 307 307 307 307 307 308 308 310 312 313 313 313 313 315 319 325 331 334 334 335 335 335 336 336 335 334 334 336 337 335 334 334 335 336 336 335 333 334 333 333 334 332 331 332 332 332 331 331 332 333 332 330 329 329 328 328 326 326 322 318 321 323 322
316 317 317 315 314 314 314 313 313 312 312 314 314 311 314 313 310 312 314 315 316 314 311 311 311 310 307 306 305 305 305 305 305 305 306 306 306 306 306 306 307 309 313 314 314 315 314 313 313 317 324 329 334 334 334 335 335 336 335 334 334 336 338 335 333 334 334 334 334 334 332 332 332 332 333 333 332 332 332 333 331 331 331 332 331 330 329 329 328 328 327 325 321 320 322 323 322
316 316 315 314 313 316 315 312 312 310 310 312 312 313 314 311 311 312 313 315 315 311 308 306 307 306 304 304 304 305 305 305 305 304 305 305 305 306 306 306 307 310 312 313 315 317 316 316 314 313 316 321 328 333 333 335 335 335 336 335 334 335 336 336 335 335 335 333 333 333 332 332 332 332 331 332 334 332 332 332 330 330 330 331 331 330 330 329 328 327 326 323 321 323 323 323 322
317 315 313 313 313 315 314 312 312 310 311 313 312 312 311 311 312 312 312 313 310 305 304 304 304 303 303 303 304 304 304 304 304 303 303 303 304 304 305 305 306 308 310 311 313 316 317 319 318 315 314 314 319 329 333 334 334 335 335 333 333 333 333 334 334 333 334 334 334 335 334 334 334 334 332 331 332 332 333 332 330 330 330 331 331 331 330 329 329 327 326 324 323 324 324 322 321
316 315 314 313 312 314 313 312 311 310 312 312 310 310 310 312 312 310 310 309 304 303 303 303 303 303 303 303 304 304 303 303 303 302 302 302 303 303 304 305 305 306 308 310 312 315 318 319 320 318 316 312 317 327 332 332 333 333 333 333 333 333 333 332 332 332 333 333 334 335 335 335 336 335 334 332 331 332 333 332 331 330 330 330 330 331 330 328 328 327 326 324 324 325 323 321 320
315 315 314 312 311 312 312 310 310 310 310 309 308 309 312 311 310 309 309 305 302 303 303 303 303 303 303 303 303 303 303 303 303 302 302 302 302 303 304 304 305 306 307 309 312 315 319 320 321 320 318 317 322 328 331 332 332 332 331 332 333 332 332 331 332 332 331 331 331 332 332 333 334 334 334 334 333 333 332 332 331 330 329 329 329 330 329 328 328 327 326 326 325 324 322 320 321
314 314 313 312 312 311 310 309 309 308 308 307 309 311 311 308 308 310 308 303 303 302 302 302 303 303 302 302 302 302 302 302 302 302 302 302 303 303 304 304 305 306 307 311 314 316 319 321 322 321 320 322 326 328 329 332 334 333 331 332 333 330 330 330 330 331 330 330 330 330 330 331 333 333 333 333 332 333 332 331 331 330 329 328 327 328 328 328 328 327 327 327 326 324 321 320 321
311 311 312 311 311 310 309 310 309 308 308 307 310 313 311 306 309 312 307 302 303 302 302 302 302 303 301 301 302 302 302 301 301 301 302 302 302 303 303 303 304 306 309 313 315 317 320 322 323 324 324 324 328 329 329 331 332 332 330 330 331 328 329 330 329 329 330 330 330 330 330 330 331 332 332 332 330 330 330 330 329 328 328 328 327 327 328 328 328 327 326 327 326 323 320 321 322
309 310 312 312 311 311 310 310 309 309 309 308 309 312 309 307 310 311 306 302 303 303 303 302 302 302 300 301 301 302 301 301 301 301 301 302 301 301 302 302 303 305 309 313 316 319 321 323 324 326 326 326 328 329 330 330 329 330 329 329 329 328 328 328 327 328 328 328 329 330 330 330 331 331 331 330 329 329 328 328 327 327 327 327 327 327 327 327 327 327 326 326 325 323 321 320 322
309 310 314 314 313 314 312 310 308 310 311 307 309 313 311 311 310 307 304 302 303 304 304 303 302 301 300 300 300 301 301 300 301 300 300 300 300 300 300 301 301 304 309 314 317 319 322 324 324 326 327 328 328 328 328 329 328 328 328 327 327 327 326 325 325 326 327 327 327 328 329 329 330 330 330 329 329 328 327 327 326 326 327 327 327 326 326 326 326 326 325 324 323 323 322 321 322
310 310 313 315 316 316 312 310 309 311 310 306 309 315 315 314 309 305 304 303 304 305 305 304 302 301 300 300 300 300 300 300 300 299 299 298 299 299 299 300 300 303 307 313 317 318 321 323 324 325 326 327 327 327 326 326 326 325 325 325 325 325 325 325 324 324 324 325 326 326 326 327 328 327 328 328 328 327 326 326 326 326 327 326 326 326 326 326 325 325 325 323 322 323 322 321 321
312 312 312 315 316 316 313 311 311 313 309 305 311 315 317 315 308 304 304 303 305 307 307 304 302 301 300 300 300 300 299 300 299 298 298 298 298 298 298 299 301 304 307 311 314 316 319 322 323 324 325 325 325 325 324 324 324 323 323 323 323 323 323 323 322 322 322 322 323 324 325 325 326 325 325 325 325 325 324 325 325 325 326 325 325 325 325 325 324 324 324 322 322 322 322 321 319
312 314 315 316 315 315 315 311 309 313 310 307 312 315 317 315 308 304 303 303 304 307 307 304 302 301 300 300 300 299 299 299 299 298 298 297 297 297 298 299 303 306 308 310 312 314 318 321 322 322 323 323 323 323 322 322 323 322 322 321 321 321 321 321 320 320 320 320 321 322 322 322 323 323 323 324 324 323 323 323 323 323 323 323 323 323 323 322 321 321 321 321 320 320 319 318 318
314 314 317 318 316 316 316 312 308 310 310 310 312 315 317 314 309 305 303 304 304 306 308 304 302 301 300 300 300 299 299 300 300 298 297 297 297 297 297 300 304 306 308 311 313 315 318 320 321 321 321 321 321 321 321 321 321 320 320 319 319 319 318 318 317 317 317 318 318 319 319 319 319 320 320 321 321 321 321 321 320 320 321 321 321 321 321 320 319 319 319 319 318 317 316 316 317
316 315 316 317 315 314 315 315 311 308 310 313 313 314 316 313 309 306 304 304 305 307 308 304 302 301 301 300 300 299 299 299 299 298 297 296 297 297 298 300 303 306 308 311 314 316 317 318 320 319 319 319 319 319 319 319 318 318 317 316 316 316 315 314 314 314 314 315 315 315 316 316 317 317 317 318 318 318 318 317 317 317 317 318 319 319 319 318 318 318 317 317 317 315 315 314 315
318 317 317 316 315 314 314 316 313 310 312 314 314 314 316 313 309 307 305 303 305 307 306 304 302 301 301 300 300 299 299 299 298 297 296 295 296 297 297 299 302 305 306 308 312 315 315 316 317 317 317 317 317 317 316 315 315 315 314 313 314 313 311 310 311 311 311 311 311 311 312 313 313 314 314 315 315 315 315 314 313 313 314 314 315 316 316 315 315 315 315 314 314 313 312 311 311
318 318 317 316 316 315 315 315 312 310 313 315 315 316 317 316 312 308 306 304 305 306 304 303 302 301 301 300 300 300 299 299 298 296 295 295 296 297 297 298 300 303 305 305 308 310 311 312 314 315 315 315 314 314 313 313 312 312 311 311 309 308 307 307 307 307 307 307 307 307 308 308 309 310 310 311 312 312 312 311 311 311 311 311 311 311 310 310 310 310 310 310 310 309 309 308 307
316 317 317 316 317 316 315 314 311 309 313 316 316 316 317 317 315 311 307 305 305 306 305 303 303 302 301 301 300 299 299 298 297 296 295 295 295 297 298 298 299 302 304 305 305 306 308 310 311 312 312 312 312 312 312 312 310 310 309 308 306 304 304 304 304 304 303 303 303 304 304 304 305 306 306 307 307 307 307 307 307 308 308 308 308 307 306 307 307 307 307 307 306 304 304 304 305
314 316 316 316 317 316 314 313 310 309 312 315 314 314 315 316 316 312 307 306 307 307 306 305 303 302 301 301 300 299 298 297 297 296 295 295 295 296 297 297 298 300 302 304 304 306 308 309 310 310 310 311 311 311 312 311 309 308 307 305 303 302 301 301 301 300 300 300 300 300 301 301 301 301 302 302 303 303 302 303 303 304 304 304 304 304 305 305 305 306 305 305 304 302 301 301 303
314 315 315 316 317 316 315 312 309 309 312 315 313 313 315 315 316 313 308 307 307 305 305 304 303 302 301 300 300 299 298 297 297 297 296 295 295 296 296 296 297 298 300 302 303 305 307 308 309 308 308 309 310 309 309 308 307 306 304 302 301 300 299 299 298 298 298 299 299 299 299 299 299 299 299 299 300 300 299 299 299 300 300 300 300 300 300 301 301 303 303 303 304 302 301 300 300
314 314 315 316 316 316 317 314 310 309 310 312 312 312 315 317 315 312 307 305 304 301 301 302 302 302 301 300 299 299 298 298 297 296 296 296 295 295 295 295 296 297 298 299 301 304 306 306 307 306 306 306 306 306 306 305 304 303 302 300 299 298 297 298 298 298 298 298 298 298 298 298 298 298 298 298 298 298 298 297 297 297 297 297 297 297 297 297 298 299 300 301 302 302 301 300 299
314 314 315 316 316 315 316 314 311 310 310 309 311 316 318 318 317 313 306 301 302 300 300 300 300 300 300 299 298 298 298 298 297 296 296 296 295 295 294 294 295 295 296 298 300 302 303 304 304 304 303 303 303 303 302 301 301 300 299 298 297 296 296 295 295 294 295 295 295 295 295 295 295 295 295 295 295 295 295 295 295 295 294 294 294 294 294 294 295 295 296 297 298 300 300 299 298
316 315 314 314 314 314 314 314 313 315 317 311 312 321 323 316 316 314 307 303 303 301 300 301 301 299 298 298 298 298 297 297 296 296 296 295 295 294 293 294 294 294 295 297 298 300 301 301 302 302 301 301 301 300 300 299 299 298 297 296 295 294 292 291 290 290 290 290 291 291 291 291 291 291 291 291 291 291 291 291 291 291 290 290 290 290 290 290 290 290 291 292 293 295 296 296 297
317 317 314 312 313 314 314 314 315 319 321 312 309 319 322 317 316 314 308 306 306 303 302 302 301 299 299 299 299 298 296 296 296 295 295 295 294 294 294 293 293 293 294 296 297 298 299 300 301 301 300 300 300 300 300 299 298 297 297 296 295 292 290 288 288 288 288 288 288 288 288 288 288 288 288 288 288 288 288 288 287 287 287 287 287 287 287 286 287 287 287 287 288 290 292 293 294
320 317 314 311 311 313 314 314 316 318 318 312 310 315 318 318 319 314 307 308 309 306 304 302 301 300 299 299 299 298 297 296 296 295 295 295 294 294 293 292 291 292 293 295 296 298 299 300 300 300 300 299 299 299 299 299 298 298 297 296 294 291 289 288 287 287 287 287 287 286 286 287 287 287 287 287 287 287 287 287 287 286 286 286 286 286 286 286 286 286 286 286 286 286 288 289 290
318 313 311 311 312 314 314 315 316 315 315 317 315 313 317 320 318 314 309 310 313 312 308 304 302 301 300 299 298 297 297 296 296 295 295 294 293 292 292 291 290 291 292 293 295 297 298 299 299 299 299 299 298 298 298 297 297 296 295 295 292 289 288 287 286 287 286 286 286 286 286 286 286 286 286 286 286 286 286 286 286 286 286 286 286 286 286 286 286 286 286 286 286 285 285 286 287
313 309 309 310 311 312 313 315 316 313 315 321 318 314 318 321 319 315 312 312 315 314 310 306 303 302 300 300 298 297 296 296 296 295 295 294 293 291 290 290 290 290 291 292 294 295 296 297 298 298 298 298 297 297 297 296 295 295 294 293 291 289 287 287 286 286 286 286 286 286 285 285 285 285 285 285 285 285 285 285 285 285 285 285 285 285 285 285 285 285 285 285 285 285 285 285 285
309 310 312 312 311 311 312 312 313 315 318 320 318 315 318 320 319 317 316 314 313 313 309 305 303 302 301 299 298 297 296 296 295 295 294 293 291 290 290 289 289 289 289 290 292 293 294 295 296 297 297 296 296 295 295 294 293 293 292 292 291 289 288 287 286 286 286 286 286 285 285 285 285 285 285 285 285 285 285 285 285 285 285 285 284 285 284 284 284 284 284 285 285 284 284 284 284
309 313 314 316 315 312 313 313 312 319 322 316 311 312 315 319 319 316 316 312 309 310 309 306 304 302 300 299 298 297 296 296 295 294 294 292 291 290 290 290 289 288 288 289 290 291 292 293 294 295 295 294 294 293 293 292 292 292 291 290 290 288 288 287 286 286 286 285 285 285 285 284 284 284 284 284 284 284 284 284 284 284 284 284 284 284 284 284 284 284 284 284 284 284 284 284 284
311 314 315 320 321 317 318 318 316 320 320 311 307 310 314 317 317 315 315 311 307 307 306 304 304 302 300 299 298 297 297 296 295 294 294 293 292 291 290 290 289 288 288 288 289 290 291 291 292 293 293 292 292 291 291 291 290 290 290 289 288 288 287 287 286 286 286 285 285 285 285 284 284 284 284 284 284 284 284 284 284 284 284 284 284 284 284 284 284 284 284 284 284 284 284 284 284
312 315 318 323 323 321 323 320 317 319 316 308 306 310 315 316 315 314 313 308 302 301 300 301 302 302 301 299 298 298 297 296 295 294 294 294 293 292 291 290 289 288 288 288 288 289 290 290 290 291 291 290 290 290 290 290 289 289 288 288 287 287 287 286 286 286 286 286 285 285 285 284 284 284 284 284 284 284 284 284 284 284 284 284 284 284 284 284 284 284 284 284 284 284 284 284 284
312 315 317 321 322 322 324 321 320 319 315 309 307 312 317 317 313 309 306 301 298 298 298 298 299 300 301 299 298 298 297 296 295 295 295 294 293 291 291 290 289 288 287 287 287 288 288 288 289 290 289 289 289 289 288 288 288 287 287 287 287 287 287 286 286 286 286 286 285 285 285 284 284 284 284 284 284 284 284 284 284 284 284 284 284 284 284 284 284 284 284 283 283 283 283 284 284
312 312 314 318 319 318 317 315 315 314 314 312 311 313 315 314 311 304 300 300 298 298 298 298 298 299 299 299 298 298 297 296 295 295 295 294 293 291 291 290 289 288 287 287 287 287 288 288 288 288 288 288 288 288 288 287 287 287 287 287 287 287 286 286 286 286 286 285 285 285 284 284 284 284 284 284 284 284 284 284 284 284 284 284 284 283 283 283 283 283 283 283 283 283 283 283 283
312 311 315 315 314 315 315 313 309 310 318 318 314 314 314 312 312 306 302 303 301 299 299 299 299 299 299 299 299 298 298 297 296 295 295 294 293 291 290 290 289 287 287 286 286 287 287 287 288 287 287 287 287 287 287 287 287 287 286 286 286 286 286 286 286 285 285 285 285 284 284 284 284 284 284 284 284 284 284 284 284 284 284 283 284 283 283 283 283 283 283 283 283 283 283 283 283
312 314 316 312 312 314 315 318 315 314 320 319 314 317 316 315 316 310 305 307 305 302 301 300 299 299 299 299 299 299 298 297 296 296 296 295 293 292 291 290 288 287 287 286 286 286 287 287 287 287 287 287 287 287 287 287 286 286 286 286 286 286 286 286 285 285 285 285 284 284 284 284 284 284 284 284 284 284 284 284 284 284 284 284 284 284 283 283 283 283 283 283 283 283 283 283 283
310 313 314 314 316 317 315 318 320 319 322 320 315 315 316 317 317 312 310 311 310 306 302 301 301 300 299 300 300 299 298 298 297 296 295 295 293 292 291 290 288 287 287 286 286 286 286 286 287 287 287 287 287 286 286 286 286 286 286 286 286 286 286 285 285 285 284 284 284 284 284 284 284 284 284 284 284 284 284 284 284 284 284 284 284 284 283 283 283 283 283 282 282 282 282 282 282
308 310 312 312 315 317 316 316 318 320 321 320 318 316 316 317 315 313 313 312 311 310 305 304 303 301 300 300 300 299 299 298 297 296 296 295 294 293 291 289 288 287 286 286 286 286 286 286 286 286 286 286 286 286 286 286 286 286 286 286 286 285 285 285 285 284 284 284 284 284 284 284 285 285 285 285 285 286 285 285 285 285 284 284 284 284 283 283 283 282 282 282 282 282 282 282 282
310 312 313 312 312 313 315 315 314 316 319 320 320 320 318 314 312 313 313 313 312 312 311 308 304 302 301 300 300 300 299 299 298 297 296 295 294 293 291 289 288 287 286 286 286 286 286 286 286 286 286 286 286 286 286 286 286 286 286 286 285 285 285 285 284 284 285 285 285 285 285 286 286 286 287 287 287 286 286 286 285 285 284 284 284 283 283 283 282 282 282 282 281 281 281 281 281
312 313 314 314 314 314 316 318 314 313 316 318 318 320 319 311 307 310 311 311 310 310 311 310 305 302 301 300 300 300 299 299 298 297 296 295 294 293 291 289 288 287 286 286 286 286 286 286 286 286 286 286 286 286 286 286 286 286 286 285 285 285 285 284 285 285 285 285 286 286 287 287 287 287 287 287 287 286 286 286 285 285 284 284 283 283 282 282 282 281 281 281 281 281 281 281 281
Wind_Speed
6 5 6 6 6 3 1 2 0 2 0 4 3 1 3 1 2 1 2 2 0 2 1 2 2 2 3 3 4 4 4 5 7 4 4 3 3 1 8 2 1 9 19 26 20 17 19 17 16 14 14 13 13 12 11 11 10 9 8 8 7 8 8 8 9 9 8 8 9 8 8 7 7 6 6 6 6 7 7 7 7 7 6 6 7 9 9 9 9 10 11 9 7 7 6 6 6
7 5 6 5 5 3 1 1 1 3 2 5 2 1 3 1 2 2 4 3 3 3 2 2 1 2 3 3 4 2 1 4 6 4 3 3 2 3 7 2 2 11 19 25 21 16 16 16 17 14 13 13 13 12 11 11 10 9 8 7 7 8 8 8 8 9 8 8 8 8 7 7 6 6 5 6 6 6 6 6 7 7 5 6 7 7 8 7 8 10 11 11 11 10 9 8 7
6 5 6 3 3 2 1 1 1 3 3 5 3 2 1 1 2 3 3 4 4 3 2 1 2 1 4 3 1 2 4 3 4 2 2 4 3 1 6 3 1 11 19 24 22 17 15 16 18 17 14 13 13 13 11 11 10 9 7 6 6 6 8 7 7 7 8 8 7 7 7 6 6 5 5 4 4 4 5 6 6 6 5 5 6 7 7 7 9 9 10 11 12 13 12 12 10
6 6 5 2 0 1 1 0 1 1 3 4 4 3 1 1 3 2 3 3 3 2 1 1 2 1 3 1 2 1 4 3 4 3 1 5 7 5 7 5 1 10 19 23 22 17 15 18 20 18 16 14 14 13 12 11 10 9 7 6 5 6 8 7 6 6 7 7 7 7 7 6 5 5 4 3 3 3 4 5 6 5 4 6 7 8 9 10 10 8 9 11 14 14 14 14 12
5 7 5 2 2 1 0 1 1 1 3 2 3 4 1 0 2 2 2 3 2 1 1 2 1 2 1 2 2 2 4 1 3 5 3 4 9 4 9 5 1 9 17 21 20 16 13 18 20 18 17 15 15 14 13 11 10 9 7 6 5 6 7 6 6 6 7 7 7 7 6 6 5 4 3 3 3 3 4 4 5 4 4 7 9 9 10 11 10 8 9 12 16 17 16 14 12
5 5 6 3 1 1 1 2 2 3 3 1 4 5 1 0 1 3 2 1 1 0 1 2 2 0 1 2 2 3 6 4 3 6 5 6 7 2 9 5 3 7 15 18 17 13 11 17 20 17 16 15 15 15 14 12 10 9 7 6 6 6 7 6 5 5 7 8 7 7 6 5 4 3 3 4 4 3 4 4 4 3 4 9 9 9 9 8 8 7 9 12 16 17 16 14 10
4 1 3 3 2 1 1 4 3 4 3 2 3 3 2 1 1 3 1 2 2 1 0 1 2 2 2 1 1 4 8 9 5 7 8 7 3 7 9 5 5 7 14 16 16 12 10 17 19 17 16 14 14 14 14 12 10 9 8 7 6 6 6 6 5 4 6 8 7 7 7 5 4 3 2 4 5 4 4 5 4 4 5 8 7 6 7 7 6 7 9 13 15 16 16 13 9
5 1 1 0 2 1 2 5 3 2 2 1 3 1 2 2 1 2 0 1 1 1 1 1 3 2 3 1 0 6 9 12 6 7 7 4 4 9 8 5 5 7 13 14 15 11 11 18 18 17 16 14 14 13 13 12 11 10 9 7 7 6 5 6 5 4 5 7 6 6 7 5 4 3 2 2 4 4 5 6 4 5 6 6 4 4 6 7 7 8 10 13 15 16 16 12 9
4 2 1 1 1 2 3 3 3 1 1 1 2 2 3 2 1 2 0 2 1 1 2 2 3 1 3 1 4 5 8 14 8 8 8 6 5 8 6 4 4 6 12 13 14 9 10 17 19 18 17 14 14 13 12 12 12 11 10 9 7 6 6 6 5 5 5 6 6 5 6 4 3 3 2 1 2 3 4 5 5 5 5 5 4 4 7 7 7 9 11 13 15 16 16 12 9
2 2 1 1 1 3 4 2 3 2 1 0 2 3 3 2 2 2 1 2 1 1 2 1 2 2 2 2 5 3 7 14 8 9 10 8 5 5 4 3 3 4 9 10 9 7 9 17 19 19 18 16 14 13 12 12 12 12 11 10 8 7 7 7 6 6 6 7 6 5 5 4 3 3 3 1 1 2 3 4 4 4 4 4 4 5 7 7 7 10 12 13 15 16 16 13 9
1 2 0 1 2 3 4 4 3 2 1 1 2 2 2 2 2 2 2 1 1 2 2 2 1 3 2 3 4 2 5 13 12 10 10 8 6 3 2 2 3 3 6 8 8 6 7 13 18 19 18 17 15 14 13 12 12 12 12 11 10 9 8 8 7 7 7 8 7 7 6 5 5 4 3 2 2 2 3 4 4 4 4 3 4 6 7 7 8 10 12 13 14 16 17 13 9
1 1 1 2 2 2 2 4 4 2 2 3 3 2 1 2 3 1 1 2 1 0 2 0 1 1 2 5 3 3 5 15 15 10 9 8 6 4 2 2 3 4 4 6 8 8 7 9 14 18 18 18 16 15 14 14 13 12 12 12 11 10 10 9 9 8 8 8 9 9 7 6 5 5 4 4 3 3 3 4 5 5 4 3 4 6 6 7 9 11 12 13 14 16 16 13 9
0 1 2 2 0 0 2 3 3 2 4 3 3 3 0 2 2 2 1 1 0 0 3 2 1 1 2 3 2 2 6 16 13 8 8 7 6 5 3 3 3 4 4 5 6 7 8 8 9 12 16 18 18 17 16 15 14 13 13 13 12 10 10 10 9 9 9 9 9 9 9 7 6 5 4 4 3 3 4 5 5 4 3 2 3 3 6 9 10 11 12 13 15 16 16 12 9
1 0 1 2 1 1 2 2 4 4 4 3 2 1 2 2 2 2 2 1 2 3 3 2 1 3 1 2 2 2 7 16 12 7 7 6 7 5 5 4 4 4 4 5 5 6 7 7 6 7 12 15 16 17 16 16 16 14 14 13 13 11 10 9 9 8 9 9 9 10 10 8 7 7 6 4 3 4 5 5 5 4 3 2 0 3 6 9 11 12 12 13 15 16 17 13 9
0 1 1 3 2 2 2 0 3 4 3 3 2 2 2 1 2 2 2 4 3 3 1 0 2 4 1 1 1 2 10 15 10 6 5 4 5 5 5 5 5 4 3 5 6 7 8 7 6 6 8 11 13 13 14 16 16 15 15 14 14 13 11 10 9 8 8 9 10 10 10 10 9 9 8 6 4 5 5 5 4 4 4 3 2 4 7 9 11 12 11 12 14 16 17 15 10
0 1 1 3 3 2 3 2 2 4 3 2 1 2 2 4 1 2 2 4 1 2 1 1 1 3 3 3 4 7 12 12 7 4 3 2 3 4 5 5 5 4 2 2 4 7 9 9 8 7 6 8 10 11 12 13 16 16 15 15 15 13 12 11 10 9 9 9 10 10 11 11 10 9 8 7 6 5 5 5 4 6 6 4 3 3 6 8 10 10 10 11 11 14 16 16 12
1 1 1 2 3 3 4 5 3 3 5 2 1 1 2 3 3 1 2 2 3 0 2 4 4 4 4 3 6 9 10 10 6 3 3 3 3 3 4 5 5 3 3 1 1 4 7 10 11 10 9 9 9 10 11 11 14 16 15 14 15 14 13 13 12 11 10 10 11 11 10 11 10 8 7 7 7 6 6 6 4 6 6 6 5 3 5 7 9 9 11 12 10 11 14 16 14
1 1 1 1 2 2 3 6 3 2 5 4 1 1 3 1 2 1 1 3 2 3 2 5 6 7 6 5 6 8 9 10 9 7 7 8 7 6 6 7 7 6 5 4 2 3 5 8 11 12 12 11 11 10 10 10 11 14 15 14 13 13 13 13 12 12 12 11 11 11 9 9 9 8 7 6 7 6 7 6 4 5 6 6 6 3 5 5 8 10 11 13 12 9 12 15 14
0 0 1 1 2 2 1 4 3 1 4 4 1 0 2 2 2 0 3 2 1 3 3 7 4 5 6 7 8 9 10 11 12 11 11 11 9 8 8 8 8 9 7 6 5 4 4 6 9 11 13 13 13 12 10 9 10 12 15 15 13 13 13 12 12 12 11 11 11 11 9 8 8 8 8 8 8 8 7 6 5 5 7 7 6 6 6 5 8 10 10 12 14 10 10 13 14
0 1 1 2 2 1 1 3 3 1 2 2 2 1 3 1 1 1 3 4 2 1 2 4 3 2 4 7 9 10 10 11 12 11 11 11 10 9 8 8 9 10 10 8 6 6 5 7 8 11 13 14 14 13 11 10 9 10 12 13 13 13 13 12 11 12 11 11 12 12 10 9 9 9 9 9 10 9 8 7 6 6 8 8 7 6 7 6 6 8 9 11 13 10 10 12 13
0 1 1 4 2 2 3 3 2 2 1 1 2 1 4 1 0 2 3 5 2 3 3 2 2 4 4 6 8 9 9 10 11 11 11 11 10 9 8 8 8 9 10 9 8 7 5 7 9 11 12 13 14 14 11 10 9 8 9 10 11 11 12 12 11 12 12 11 12 12 11 11 11 10 10 10 9 8 7 6 6 8 9 10 8 6 5 5 4 5 7 9 10 9 9 11 12
1 1 3 4 1 1 4 2 2 2 1 1 2 2 2 1 2 3 5 7 1 3 4 4 4 5 4 5 5 6 8 9 10 11 11 11 11 10 10 9 9 10 11 10 10 8 6 6 7 10 12 12 13 14 11 10 9 8 8 8 8 7 8 9 10 11 12 11 11 11 11 12 12 11 10 11 11 10 9 7 6 8 9 10 10 7 6 6 4 3 5 6 8 8 9 10 12
1 1 1 1 1 1 3 3 3 3 3 3 2 1 0 2 4 3 5 5 2 4 4 5 5 4 3 4 4 6 7 8 10 11 11 11 12 12 12 11 11 11 12 12 12 10 9 6 4 6 10 12 12 11 9 8 9 8 7 7 7 6 6 6 6 7 8 8 10 12 12 14 14 12 11 12 12 12 10 8 7 7 9 11 11 9 9 10 5 3 2 4 6 6 7 9 10
2 1 2 1 1 2 1 2 3 4 4 2 1 1 4 6 4 1 3 1 6 4 5 5 5 4 3 5 6 7 7 7 8 9 8 9 10 10 11 11 11 12 12 14 13 12 12 9 7 5 4 9 10 9 7 7 8 8 6 6 6 5 4 5 5 4 3 3 5 7 10 13 14 13 13 13 12 12 11 8 7 6 7 10 11 12 13 11 5 3 3 4 6 5 6 8 7
1 0 3 2 2 4 2 2 4 5 4 1 1 5 7 4 2 1 2 5 6 4 5 4 3 5 5 6 7 7 7 7 7 7 7 7 8 9 10 11 11 12 13 15 13 12 12 11 11 7 1 6 7 7 8 8 6 7 7 5 5 3 2 4 4 2 2 3 3 3 6 7 9 10 12 14 14 15 14 10 8 7 6 6 7 11 13 10 6 6 5 6 6 5 6 7 7
0 1 1 2 2 3 3 5 4 4 3 3 5 7 4 1 1 2 4 6 5 5 4 3 3 5 6 6 6 7 7 8 8 8 7 6 7 9 11 12 12 12 14 13 12 11 11 11 12 9 6 6 7 7 10 9 7 9 9 5 5 5 3 4 4 3 2 3 1 1 1 2 3 6 6 6 8 9 9 6 7 7 5 4 4 6 10 11 11 8 6 7 6 4 5 5 7
1 0 2 4 3 2 3 4 3 3 3 6 7 6 1 3 1 2 4 6 5 5 5 4 4 5 5 4 5 6 7 9 8 8 8 8 9 10 11 12 12 12 13 13 11 11 11 11 11 10 9 9 9 10 12 12 9 9 9 5 6 6 4 4 4 4 3 3 2 2 2 2 3 4 4 3 2 1 0 1 3 3 2 4 4 6 10 13 13 10 7 8 5 1 2 3 5
1 2 4 4 4 4 4 3 2 2 3 6 7 3 3 3 2 1 5 6 4 5 5 4 4 4 4 3 4 5 7 8 8 8 10 10 9 10 11 11 12 11 12 12 11 11 10 12 12 11 11 11 11 12 12 13 10 10 10 7 7 7 5 5 4 4 4 4 3 3 4 3 4 5 6 6 6 4 2 1 0 1 3 4 2 5 9 11 12 10 9 8 5 3 2 3 3
1 3 5 4 6 5 1 1 1 2 2 4 5 3 4 6 3 3 6 6 4 5 4 4 3 3 3 3 3 5 7 7 8 9 9 9 8 9 10 10 11 10 11 12 11 11 11 13 14 13 12 12 13 13 12 13 12 11 12 10 9 9 7 6 7 7 6 5 4 5 6 5 5 6 6 7 6 4 3 3 2 1 2 3 2 3 6 8 10 9 9 7 5 4 5 5 6
1 0 3 5 6 3 1 1 1 2 2 3 4 4 3 5 4 4 6 5 5 6 4 3 3 2 2 3 3 4 6 7 8 8 8 8 8 8 9 10 10 9 10 11 12 12 13 15 16 15 14 15 16 16 15 16 15 14 14 13 13 13 10 8 10 12 12 11 9 7 6 5 7 7 6 5 5 4 4 4 3 2 2 2 2 2 3 5 7 8 8 6 5 6 6 6 6
1 1 1 2 4 1 3 1 2 1 2 3 5 5 3 4 6 5 5 6 6 6 4 3 2 2 2 2 3 3 5 5 6 7 7 8 7 7 9 9 9 9 10 11 13 14 14 16 18 17 17 17 17 17 17 18 18 17 16 17 16 16 15 14 15 17 18 17 15 12 9 7 7 6 5 3 3 3 3 4 3 2 2 2 1 1 2 2 3 5 6 5 5 7 7 7 5
1 3 3 2 2 1 2 2 2 1 2 3 6 5 2 3 6 5 3 6 6 6 4 3 2 3 2 2 3 2 3 3 4 5 6 7 7 7 7 8 8 9 10 11 13 15 16 18 19 20 20 20 19 18 17 17 17 17 17 18 18 18 19 19 19 20 21 20 18 17 16 14 12 10 8 6 6 6 5 4 4 3 3 2 2 2 2 2 3 4 4 5 6 6 7 6 4
1 3 4 2 3 2 0 2 2 2 1 2 4 4 2 3 6 5 3 6 7 7 4 4 2 2 2 1 2 1 2 2 3 4 6 5 6 6 6 7 9 10 11 12 15 16 17 18 19 20 21 21 20 19 18 18 18 19 19 20 20 19 20 21 21 21 21 21 19 19 18 18 17 16 15 14 13 12 11 10 9 7 6 6 4 3 2 4 6 6 5 5 5 5 4 5 4
2 3 4 3 4 4 2 2 3 1 2 3 3 5 4 3 7 4 3 5 7 8 5 4 3 2 2 2 1 2 2 2 2 2 4 5 4 5 5 7 9 11 13 14 16 17 17 18 18 20 21 21 22 21 21 22 22 21 21 21 21 20 21 22 22 21 21 20 19 19 18 18 18 18 18 17 17 17 16 15 15 13 11 9 8 6 7 8 8 7 6 5 5 5 5 7 6
2 3 4 3 4 6 5 2 1 1 3 4 4 7 8 5 8 5 2 4 7 8 5 4 4 4 4 3 3 3 2 2 2 2 4 4 4 5 5 7 9 12 13 14 16 17 18 19 21 22 23 24 23 23 24 24 23 22 22 22 21 21 22 22 21 21 21 20 19 18 17 17 16 17 17 16 16 16 16 17 16 15 14 13 12 11 11 11 9 8 7 6 6 6 7 8 9
1 2 3 4 5 5 3 1 1 1 3 8 8 10 11 8 8 8 5 4 6 6 4 5 5 5 5 4 3 3 2 2 2 3 4 4 4 5 6 7 9 12 13 14 16 18 19 20 21 23 24 24 24 24 24 25 24 23 23 22 22 23 22 21 21 21 21 20 19 18 17 17 16 16 16 15 15 15 15 15 15 14 14 13 14 15 15 13 12 11 10 10 9 8 10 11 12
1 1 3 6 7 5 1 3 1 1 4 8 9 11 13 12 9 8 7 5 7 8 7 7 6 6 5 5 4 3 2 2 2 2 3 4 4 5 6 8 9 10 13 15 15 17 18 19 20 21 23 23 23 23 23 23 23 22 21 21 22 23 22 21 21 21 21 21 20 19 19 19 18 17 17 17 16 16 16 16 15 15 15 14 15 16 16 14 13 12 11 11 11 11 13 15 16
2 3 5 6 7 7 1 3 1 1 4 6 4 9 14 14 12 6 8 8 9 10 9 8 7 6 4 5 5 3 2 2 2 2 3 3 3 5 6 8 9 10 13 15 16 17 18 19 20 20 20 21 21 21 20 21 22 22 22 23 23 23 23 23 23 23 23 22 21 21 21 21 20 19 19 18 18 19 19 18 18 18 17 17 16 15 14 14 13 13 10 9 11 12 14 17 19
3 3 5 6 4 5 3 3 2 2 4 4 1 7 13 13 12 7 8 8 6 3 4 4 5 6 5 5 5 5 4 4 4 3 3 2 3 5 5 7 10 11 13 14 16 18 18 19 19 19 19 19 19 20 20 21 23 23 24 25 24 25 25 24 25 25 23 23 22 22 22 21 21 21 20 19 20 20 20 20 20 19 19 19 19 18 17 16 16 15 13 9 8 10 12 16 19
6 5 5 6 2 2 5 2 3 3 3 3 3 6 12 12 11 7 5 3 1 2 1 2 3 4 4 4 4 5 6 5 5 4 4 4 3 4 4 6 9 11 13 14 16 18 19 20 20 20 20 20 20 21 21 23 24 24 25 26 27 27 27 26 26 25 24 23 23 23 22 22 22 22 21 21 21 21 21 22 21 21 21 22 22 22 21 20 18 17 16 13 10 9 10 13 16
8 8 8 8 5 6 8 1 2 2 3 2 4 8 10 8 9 6 3 2 1 2 4 4 4 4 3 3 4 4 4 5 5 5 4 4 4 3 4 5 8 10 12 14 17 19 20 21 21 22 22 22 23 23 24 25 26 28 28 27 26 26 25 25 24 24 25 26 26 25 25 24 25 25 25 25 25 24 24 24 24 24 25 25 26 26 24 23 22 21 20 18 15 11 9 10 12
6 9 12 12 10 8 7 1 1 5 4 2 2 7 5 1 5 5 3 2 4 5 6 7 6 5 5 5 6 5 4 4 4 5 5 4 4 4 4 5 6 8 11 14 16 18 20 21 23 23 24 24 25 25 25 26 27 26 24 22 21 22 22 21 22 24 27 28 28 27 27 26 27 27 27 27 26 26 26 26 26 26 27 27 27 27 27 26 25 25 24 22 20 16 12 11 11
5 4 8 12 11 7 6 4 3 5 3 1 1 6 5 3 5 2 4 4 6 7 8 9 8 7 7 7 6 6 6 5 5 5 5 5 5 5 5 4 5 7 11 14 16 18 20 21 23 24 24 24 24 24 24 24 25 24 24 24 25 26 24 22 24 26 28 28 27 27 27 26 26 26 26 26 26 25 25 25 26 26 26 27 26 26 27 26 25 24 24 24 23 20 16 14 12
3 1 3 8 9 8 8 7 6 4 2 0 3 3 4 7 6 2 3 5 7 10 11 10 10 9 9 8 7 7 7 7 6 6 6 6 5 5 5 4 5 8 11 13 15 17 19 21 22 22 22 23 22 21 20 21 24 25 27 29 30 30 29 27 27 28 27 27 27 26 26 25 25 25 25 24 24 24 24 24 24 24 24 25 25 25 25 24 23 22 22 22 22 22 19 16 14
1 2 2 3 4 5 6 6 6 2 2 4 5 4 4 8 5 1 2 5 9 10 12 13 12 11 10 9 8 7 7 6 6 6 6 6 6 5 5 5 6 10 12 13 16 17 19 20 20 20 20 20 20 19 20 22 24 26 28 30 31 31 30 29 27 27 26 25 25 25 25 25 24 23 23 23 23 22 22 22 22 22 22 22 22 22 22 21 20 20 19 19 19 19 18 16 15
3 5 6 6 4 3 3 3 3 2 3 8 7 9 6 6 5 4 2 4 8 5 6 9 12 11 10 9 8 8 7 6 5 6 6 6 5 5 5 6 7 10 12 14 17 18 20 20 20 20 20 21 21 21 23 24 24 25 27 28 30 31 30 28 27 26 25 24 24 24 24 23 23 22 22 22 21 21 21 20 21 21 20 20 20 19 19 18 18 17 17 16 16 15 15 14 13
7 7 6 6 4 3 2 1 1 2 6 6 7 13 10 5 4 6 5 2 2 0 2 5 10 10 10 9 8 8 7 6 5 6 6 6 5 5 6 6 7 10 13 15 17 20 21 22 22 23 23 23 24 24 24 24 24 25 26 27 28 29 28 27 26 25 24 23 23 23 23 22 21 21 21 20 20 19 19 19 19 19 18 18 18 17 17 17 17 16 15 14 14 14 13 12 12
4 4 5 4 2 2 2 2 2 6 6 2 1 7 9 8 4 4 4 1 1 1 1 5 10 10 9 8 8 8 7 6 6 6 6 6 6 6 6 7 8 10 12 15 18 21 22 23 24 25 26 26 26 26 25 25 25 25 25 26 26 26 26 25 25 24 23 23 22 22 21 20 20 19 19 19 18 17 17 17 17 17 17 17 17 17 16 16 16 15 15 14 13 13 13 12 11
3 4 7 6 3 3 4 3 4 6 4 2 2 3 5 8 7 7 6 1 2 1 2 2 7 10 10 9 9 8 7 7 7 6 6 7 8 8 8 8 9 9 12 16 19 21 23 24 25 26 27 26 26 26 25 25 25 25 25 25 25 25 24 24 23 23 22 21 21 20 19 19 18 18 17 17 16 15 15 15 15 16 16 16 16 16 16 16 16 16 15 15 15 14 14 13 12
7 8 8 8 5 4 5 4 3 5 1 3 1 3 3 4 6 10 7 2 3 2 3 2 2 7 10 10 9 8 7 7 7 6 7 8 9 9 9 9 9 10 13 17 19 21 24 24 25 27 27 26 26 26 25 25 25 25 24 24 24 23 23 22 21 21 20 19 18 18 17 17 16 16 16 15 15 14 14 14 14 14 15 15 15 15 15 15 15 15 15 15 15 15 14 14 13
8 5 4 5 5 4 5 4 3 3 1 2 1 3 5 3 2 3 2 2 2 1 3 2 1 4 7 8 8 8 8 8 6 7 7 9 10 10 9 10 10 11 15 18 20 22 24 25 25 27 27 26 26 26 25 25 25 24 24 23 23 22 21 21 20 19 18 17 16 15 15 15 15 15 14 14 13 13 13 13 13 13 13 13 13 13 14 14 14 14 14 13 13 13 13 13 12
4 1 1 4 4 2 1 1 0 2 1 2 4 3 3 2 1 1 0 2 3 2 3 3 3 4 7 8 8 9 9 8 8 7 8 10 11 11 11 11 11 13 16 19 21 23 24 25 26 27 27 27 26 26 25 25 25 24 23 22 21 20 20 19 19 18 16 15 14 14 14 13 13 13 12 12 12 11 11 11 12 12 13 13 14 15 15 16 16 16 16 16 16 16 16 15 14
4 3 5 3 1 1 1 1 2 1 5 3 4 4 3 1 2 3 4 4 5 4 3 4 5 6 8 8 9 10 9 9 9 8 9 11 12 12 12 13 13 15 18 20 22 23 25 26 27 27 27 27 26 25 25 24 24 23 22 21 20 19 18 18 18 17 16 14 14 13 12 12 12 11 11 10 10 11 11 12 13 14 15 16 16 17 18 18 19 19 19 19 19 19 19 19 18
5 5 6 4 2 1 1 3 1 2 7 3 4 8 6 5 3 3 5 6 7 7 6 5 5 7 9 10 10 11 10 9 9 9 10 11 13 14 14 15 16 17 19 20 22 23 25 26 27 27 27 27 26 25 24 24 23 23 22 20 19 18 17 17 17 16 15 14 13 12 11 10 10 9 9 10 11 11 12 13 14 15 16 17 17 18 18 18 18 18 18 18 18 18 18 18 19
1 2 3 3 3 4 4 4 3 4 6 4 4 7 7 8 6 5 8 10 10 9 7 6 8 9 10 10 11 11 10 9 9 9 9 11 14 15 14 15 17 18 19 20 22 23 25 25 26 26 26 26 25 25 24 23 22 22 21 20 19 18 17 17 16 15 14 13 12 11 9 9 9 9 10 11 12 12 13 14 15 15 16 16 16 17 17 17 17 17 17 17 17 17 17 17 18
1 1 2 0 3 3 3 3 2 3 5 4 3 4 5 7 8 11 13 12 10 9 7 8 11 11 10 10 11 12 11 11 10 10 9 12 14 14 14 16 18 20 21 21 22 23 24 25 25 26 26 25 25 24 23 23 21 21 21 20 19 18 17 16 15 14 13 11 10 9 8 8 8 9 9 10 10 11 11 12 13 13 14 14 15 15 16 16 16 16 16 16 17 17 17 17 17
6 6 7 5 2 0 2 2 1 2 4 4 4 5 3 3 4 10 13 10 8 9 8 9 9 9 9 8 9 11 11 11 10 9 9 11 13 12 14 17 20 22 21 21 22 22 23 25 25 26 26 25 25 24 23 23 22 21 21 20 19 18 17 16 15 13 11 10 9 8 8 7 7 7 6 7 7 8 9 9 10 11 12 13 14 14 15 15 16 16 16 16 17 17 17 17 17
7 8 10 11 8 5 4 5 3 1 3 3 3 5 2 3 0 2 4 3 3 5 5 5 5 7 7 7 8 9 10 10 10 8 8 11 12 12 14 17 20 21 21 20 22 23 24 26 26 26 26 26 26 25 24 24 23 22 21 21 20 19 17 16 14 12 10 9 9 8 7 6 5 4 4 4 5 6 7 8 9 11 12 13 14 14 15 15 15 15 16 16 16 16 16 17 17
Wind_Direction
349 350 352 353 2 318 300 339 183 95 29 101 82 116 100 344 314 276 134 129 167 91 355 332 311 295 310 321 359 3 347 5 13 13 61 54 343 174 170 123 94 168 173 175 171 173 174 170 171 176 175 176 177 176 174 172 170 168 163 160 157 149 144 140 139 136 133 130 128 125 121 115 110 107 105 106 99 90 83 87 93 92 85 82 75 73 72 65 55 40 34 39 41 33 32 28 28
346 351 353 3 12 327 160 309 233 124 144 109 89 54 81 235 223 104 81 58 44 50 352 319 258 255 289 288 295 285 23 11 5 19 60 28 34 143 177 119 77 170 175 177 172 170 177 177 175 179 182 179 180 180 179 178 175 171 168 163 154 152 150 144 141 138 139 136 133 130 125 120 114 110 101 96 96 94 88 90 93 91 86 81 74 70 67 58 42 36 39 39 36 28 20 8 358
350 357 347 351 28 10 154 253 194 137 131 106 103 95 76 193 121 80 51 24 26 4 307 246 205 225 249 207 276 326 66 49 6 18 56 22 35 62 189 181 59 172 177 179 175 171 177 186 181 182 186 183 184 186 183 182 180 176 172 164 149 152 152 146 145 142 140 139 136 132 128 124 119 113 100 90 94 106 102 96 94 91 87 83 71 59 45 25 16 29 44 35 27 22 17 12 5
0 358 341 281 192 90 221 126 124 141 116 108 109 120 232 124 81 53 32 7 3 328 278 220 184 109 277 41 33 331 48 68 43 1 19 35 2 346 187 187 10 173 179 181 180 173 178 191 186 184 185 184 188 188 188 187 184 181 179 169 155 156 152 148 152 151 145 141 141 137 133 128 121 113 101 79 84 121 125 107 103 96 87 85 65 49 37 23 17 24 41 29 12 7 5 6 10
10 6 14 246 238 53 245 91 117 129 100 106 111 124 181 126 57 40 24 8 6 321 316 278 121 108 269 24 336 329 23 30 56 13 14 23 353 350 170 169 58 172 180 183 182 176 184 194 186 187 187 184 189 190 193 192 189 187 186 178 170 164 155 158 159 155 154 149 149 145 141 135 127 123 103 59 66 106 131 121 107 97 94 89 69 55 45 39 40 28 30 20 2 357 357 359 10
9 12 49 74 97 9 202 131 126 98 67 19 101 118 122 100 10 353 333 55 97 40 331 317 12 139 141 83 317 9 16 330 354 7 348 340 349 124 158 143 106 167 179 183 185 180 194 195 186 190 190 188 190 193 198 197 195 192 193 188 181 172 160 167 162 161 164 156 159 157 153 149 142 138 99 63 64 81 120 120 101 96 98 91 79 67 55 47 47 27 16 9 360 359 0 2 12
1 338 56 72 110 294 193 116 112 104 74 337 62 100 83 61 357 321 274 143 143 130 196 16 322 274 94 80 286 70 33 1 339 336 327 331 16 149 157 133 113 164 179 183 185 185 203 197 190 193 192 193 193 195 200 201 202 198 198 194 188 180 168 171 165 178 173 158 166 167 162 161 157 152 104 68 65 71 112 119 110 108 101 96 92 76 57 34 17 4 2 3 3 4 6 10 19
7 359 276 300 110 31 128 111 99 87 94 285 324 323 337 358 313 301 39 100 93 76 43 91 270 270 85 303 349 96 37 13 2 356 352 8 87 154 157 124 111 159 178 184 186 190 207 198 194 197 195 198 200 199 198 201 207 203 201 197 194 188 183 180 172 187 183 165 170 169 165 162 163 174 138 83 69 79 115 126 126 119 111 105 92 61 33 17 8 0 0 2 2 2 5 12 23
17 16 228 217 119 109 128 119 104 70 102 201 271 254 292 318 258 278 122 92 56 8 28 15 283 346 91 143 81 102 33 19 23 23 26 50 94 152 149 112 106 158 176 183 189 189 201 199 198 201 200 201 205 202 195 200 206 208 206 200 199 198 197 190 180 187 193 179 172 178 175 170 177 203 199 120 76 92 128 138 136 128 116 99 74 38 19 21 21 8 2 357 357 360 3 8 20
24 22 208 146 143 150 148 141 121 127 113 222 268 259 276 266 226 266 267 86 67 348 58 321 277 54 88 103 78 93 22 19 29 28 31 48 74 132 134 102 82 142 173 180 186 184 193 200 203 204 205 204 207 207 197 198 205 212 210 204 204 205 205 198 191 189 199 192 179 191 191 189 202 224 229 195 146 121 139 146 138 132 110 90 64 35 34 42 28 10 4 357 356 360 2 3 14
215 51 286 178 173 171 164 154 133 129 119 229 238 259 281 256 236 212 252 67 67 330 90 203 199 79 123 108 68 101 29 19 26 24 31 46 51 74 103 99 70 102 163 179 181 182 190 200 205 208 211 209 211 213 208 202 205 215 214 210 206 206 212 206 204 201 202 201 191 195 198 205 218 231 244 242 203 154 160 161 148 136 113 91 57 45 49 50 27 13 9 2 360 1 1 1 6
222 102 241 201 179 176 155 143 132 119 142 174 152 120 346 247 244 162 161 70 77 277 92 331 37 63 182 135 103 120 47 20 18 16 38 49 46 54 74 94 98 103 144 174 180 186 189 196 206 210 215 215 215 218 218 212 209 217 221 219 212 209 214 207 209 213 207 207 205 203 205 212 222 236 245 256 234 187 183 171 161 148 127 94 64 58 48 36 24 18 12 6 4 3 1 1 3
356 121 216 182 60 78 130 133 127 136 153 161 122 92 325 246 274 18 45 82 277 140 70 11 45 279 249 129 137 135 37 15 9 21 49 58 58 61 81 98 117 124 138 159 176 187 193 197 205 211 216 219 220 221 223 223 217 217 224 227 222 216 218 211 212 221 214 211 214 213 215 217 226 239 241 252 244 209 204 187 175 167 156 118 70 51 31 23 20 18 12 9 6 6 4 2 3
4 85 250 143 65 124 141 130 146 175 153 133 85 69 228 253 323 340 336 8 59 48 37 7 329 295 266 149 175 143 9 359 4 36 52 67 75 71 86 96 112 134 152 162 177 183 193 201 209 216 217 220 222 225 225 227 225 220 223 230 230 225 225 221 219 226 222 217 218 223 223 223 231 239 241 244 234 217 217 206 192 187 193 184 83 358 4 6 9 12 11 11 8 7 7 4 1
42 139 44 118 143 167 177 134 156 188 151 125 81 5 224 172 313 287 352 343 48 67 335 224 307 307 341 245 132 46 342 344 3 44 49 79 94 81 87 92 96 111 152 176 191 192 194 195 209 223 220 220 220 227 227 230 231 226 224 227 231 228 228 232 234 237 233 228 225 230 231 230 236 241 243 241 234 228 221 212 203 210 219 219 252 326 348 354 1 7 11 10 9 9 8 6 360
51 168 126 133 164 188 186 158 173 188 142 115 62 330 217 140 238 285 42 327 339 91 308 45 30 326 360 356 3 350 336 347 7 44 54 104 116 85 84 91 90 86 104 160 200 205 207 199 199 208 216 219 217 227 229 231 236 234 229 227 232 231 229 233 240 246 244 241 238 238 238 236 239 247 251 246 239 232 219 213 213 224 221 210 225 311 339 347 350 357 9 6 7 12 10 9 3
257 233 168 148 175 195 177 165 180 152 127 130 54 304 263 131 166 284 40 277 272 287 37 47 52 29 34 32 358 344 351 11 22 47 52 53 57 51 48 53 62 51 48 55 228 217 220 214 208 203 204 209 210 221 228 231 235 239 238 233 233 234 234 235 238 246 249 249 248 246 245 243 244 249 254 251 246 239 230 224 226 232 223 211 215 299 324 330 334 343 3 2 360 13 13 11 9
252 232 185 171 164 172 168 159 158 104 124 141 88 342 307 345 134 131 233 203 234 279 121 97 70 72 79 61 16 3 14 25 38 49 45 38 31 27 24 22 27 20 14 10 332 272 241 231 223 213 208 205 202 206 218 226 231 235 238 239 239 239 241 241 239 241 245 247 251 252 246 246 248 249 250 252 252 248 243 234 231 240 242 231 221 276 305 317 327 334 353 359 354 8 18 11 10
300 121 257 161 128 101 128 146 141 124 115 126 131 344 297 322 38 31 268 197 190 291 142 138 124 109 98 55 31 23 26 32 39 43 45 41 30 25 18 9 13 13 7 4 347 311 273 249 239 229 220 212 204 200 205 212 221 223 225 232 238 242 241 242 246 242 241 242 248 256 249 243 247 250 247 244 246 249 254 247 235 243 254 240 228 265 286 302 321 332 347 354 353 4 23 14 10
272 224 273 116 123 96 161 191 165 138 97 140 155 147 279 302 24 292 294 294 243 269 86 151 168 106 68 40 27 22 28 35 37 40 44 40 34 28 15 7 3 3 5 3 353 331 294 263 246 239 231 222 213 203 203 205 213 220 220 225 228 235 238 240 252 250 249 249 246 251 255 256 255 254 250 248 249 251 257 256 240 238 249 240 241 273 280 287 306 332 346 350 353 7 25 15 10
148 292 24 102 149 155 154 205 189 149 176 244 126 189 273 358 335 269 285 294 241 131 54 22 18 38 37 34 22 17 26 33 34 36 38 35 32 26 14 7 358 358 5 3 350 335 306 276 251 241 234 229 222 209 204 201 203 215 220 224 223 229 237 236 243 246 250 254 246 243 251 259 259 258 256 254 249 243 245 250 242 237 240 239 247 265 261 263 284 331 346 351 357 14 27 16 10
158 45 37 95 171 128 122 155 155 148 175 184 167 236 287 73 238 244 248 276 303 84 43 36 42 48 44 32 15 18 29 31 32 29 28 26 22 18 9 2 359 2 4 360 349 340 327 296 263 243 231 226 224 213 205 200 197 207 215 215 217 226 237 242 249 246 241 245 242 238 243 248 252 254 256 257 252 246 244 243 246 239 232 232 240 249 241 238 255 322 342 358 4 22 29 17 10
285 102 64 117 203 358 100 132 159 163 183 201 233 289 24 227 252 241 242 270 48 55 42 58 59 60 56 42 32 34 35 30 30 26 21 20 15 10 5 0 358 359 360 357 352 354 354 337 308 263 230 218 216 207 198 194 191 199 210 209 210 218 227 243 262 254 240 243 243 244 249 249 249 248 251 258 256 252 247 241 248 240 235 238 241 241 228 226 241 301 315 350 360 17 20 12 7
290 109 140 154 223 262 108 130 165 188 213 220 9 316 235 241 260 226 212 86 79 79 65 70 71 74 70 56 46 41 40 35 32 26 23 22 14 7 4 2 359 358 359 359 0 7 7 10 13 343 228 197 192 189 184 181 190 193 187 186 196 217 228 226 242 255 240 241 249 252 258 254 245 245 252 254 255 256 247 242 247 243 248 250 251 246 227 217 238 278 262 316 342 355 360 358 3
262 55 132 140 213 239 238 222 207 206 230 222 174 245 249 253 290 255 145 102 96 99 83 79 85 79 63 50 41 37 37 34 30 27 26 23 16 15 14 10 7 6 5 4 8 16 18 28 32 21 74 159 158 167 168 161 173 173 170 178 172 177 193 192 197 200 200 221 265 277 271 265 242 242 256 252 251 251 240 238 247 245 251 256 262 251 232 225 248 260 263 306 336 353 352 358 10
34 78 145 202 223 243 241 246 229 208 218 177 212 247 251 29 309 244 113 110 115 111 95 77 76 64 50 40 34 33 33 28 23 20 18 19 21 21 20 15 14 12 12 16 19 24 32 42 45 45 75 119 133 147 157 157 154 150 166 182 149 145 141 159 165 134 152 193 231 282 266 289 235 228 251 260 256 251 237 239 257 251 243 258 275 254 241 246 255 254 264 302 330 358 354 8 16
52 26 252 245 262 260 218 234 214 187 205 190 225 258 127 78 251 231 111 122 139 127 107 75 76 66 49 37 33 30 33 28 17 15 14 17 22 16 14 13 15 18 23 32 37 38 46 54 57 65 88 112 129 135 146 160 159 151 169 169 137 147 124 123 139 112 98 110 115 107 130 109 104 148 138 103 109 95 86 279 288 285 289 288 269 247 250 251 255 254 256 289 308 353 350 5 17
17 308 270 244 275 266 207 220 209 186 203 194 221 254 114 133 233 223 119 143 165 143 118 95 89 81 64 44 40 33 32 27 17 20 19 15 12 8 8 8 11 20 32 42 50 55 64 71 71 79 100 118 133 135 139 150 144 136 154 146 124 143 126 109 109 98 86 77 88 92 101 107 95 115 122 115 115 113 111 112 306 319 313 304 260 237 250 249 253 252 251 279 281 236 274 313 352
329 324 298 287 292 277 196 124 187 202 185 176 208 237 194 193 200 110 130 151 167 161 135 111 100 84 79 56 53 46 32 25 25 25 19 12 6 5 6 6 9 19 36 52 65 72 82 89 85 88 105 117 125 129 125 133 133 119 127 123 107 118 118 105 97 91 90 92 100 95 88 82 85 101 113 110 103 108 107 80 77 70 340 333 337 274 262 261 264 259 264 289 290 258 268 298 330
227 81 317 304 292 272 103 68 234 208 149 166 214 254 219 180 146 115 146 167 177 181 158 123 112 88 81 63 59 56 40 28 30 27 18 13 6 9 9 8 16 26 39 56 73 81 89 97 98 101 109 111 111 115 113 116 119 111 112 115 105 103 100 96 101 96 91 96 101 101 100 86 82 86 96 101 91 91 90 74 65 48 35 27 11 313 276 271 270 271 279 296 293 274 271 289 311
282 254 222 280 285 217 112 67 306 229 142 180 220 254 249 153 134 131 166 184 197 209 174 133 116 91 78 67 65 60 53 39 35 30 22 21 15 15 16 15 31 46 52 63 77 84 92 100 105 108 112 112 109 110 109 107 108 106 106 108 103 101 99 97 99 97 91 90 89 89 93 94 91 86 87 100 98 90 85 70 54 46 50 33 28 355 312 296 288 287 293 305 297 291 289 287 298
3 268 227 181 243 235 122 83 354 308 117 183 219 249 267 157 139 124 163 192 207 231 191 131 108 95 76 71 69 64 75 66 52 39 26 26 25 23 24 34 57 74 76 81 86 90 98 103 105 108 109 111 110 108 107 106 107 107 105 104 103 103 102 97 93 92 90 87 84 81 80 82 83 81 81 86 89 88 91 85 66 67 68 46 38 357 327 343 349 327 316 315 310 311 305 298 303
171 246 256 220 221 266 292 114 55 345 90 185 223 258 286 144 139 117 144 199 208 232 209 138 120 102 89 94 84 96 116 108 84 44 28 27 31 31 38 63 85 97 99 100 100 100 103 105 107 107 106 106 106 107 108 108 108 107 105 102 100 99 98 96 92 89 87 84 82 80 78 78 77 76 77 77 79 80 84 84 77 73 71 71 68 46 35 34 27 14 354 339 335 339 328 316 315
201 202 252 253 229 248 261 149 103 32 233 219 219 248 258 146 140 135 141 192 212 226 213 155 146 150 144 157 159 161 163 140 110 42 25 25 35 51 63 83 101 109 111 111 111 110 110 112 113 111 110 109 108 108 109 108 108 106 102 99 98 97 96 95 93 89 85 83 81 81 81 80 79 78 76 76 77 78 78 77 75 74 73 76 75 70 67 57 46 29 16 16 4 357 355 347 342
231 204 240 257 228 230 246 238 108 94 235 243 223 240 251 195 160 170 163 184 216 223 199 162 168 175 177 185 187 175 175 160 110 34 23 23 33 60 73 86 102 111 112 114 118 120 120 120 119 117 116 114 114 113 111 108 106 104 101 100 99 96 92 90 89 88 86 84 82 81 83 83 83 84 83 81 79 78 77 76 75 74 72 74 74 75 71 67 66 58 52 50 35 24 17 6 357
284 234 258 268 257 243 227 206 24 32 260 252 241 251 259 235 192 182 183 191 214 215 178 172 184 182 190 192 187 183 176 141 76 31 26 28 37 64 80 84 95 108 112 114 120 123 123 122 122 123 122 120 120 119 115 111 107 105 104 101 96 91 88 87 86 86 87 86 85 85 85 85 86 87 88 87 85 85 85 81 79 75 70 67 66 66 64 62 62 62 64 59 52 41 30 23 10
90 267 268 265 267 267 170 118 51 26 263 255 248 261 266 262 242 191 173 192 211 212 195 190 192 186 196 192 180 182 166 107 66 50 43 41 54 82 97 95 97 107 115 118 120 122 122 123 125 126 126 126 125 123 120 117 113 110 107 101 96 92 90 89 88 87 87 87 88 87 86 86 86 85 86 87 88 89 88 86 84 80 75 69 66 65 63 62 58 57 55 49 51 44 34 29 17
221 250 259 264 259 265 244 122 112 119 251 255 242 261 261 261 259 195 161 200 215 213 206 197 194 191 193 187 181 178 156 128 137 119 80 63 77 100 107 106 108 110 118 122 120 121 123 124 126 125 125 125 124 124 122 120 118 115 111 106 103 98 95 94 91 89 89 89 88 87 86 85 84 83 83 86 87 88 87 84 83 82 82 78 75 74 70 67 62 62 58 45 47 47 41 32 25
228 235 254 263 258 278 273 146 142 181 237 256 235 265 264 261 255 205 176 211 214 207 218 205 197 198 195 186 180 176 171 160 158 141 121 109 89 101 102 103 113 114 118 122 121 124 126 125 127 126 125 125 125 124 122 120 119 117 114 110 106 101 97 95 94 92 91 90 88 87 86 85 84 83 83 83 84 85 85 84 83 83 84 82 79 76 73 71 67 66 66 58 51 51 51 39 35
225 219 237 247 220 258 258 158 111 183 229 294 311 283 274 265 247 209 173 202 129 85 227 237 223 219 201 184 183 181 178 169 160 152 141 133 108 97 91 99 112 114 117 121 123 126 126 127 129 128 126 125 125 125 123 122 120 119 116 112 108 103 99 97 95 93 92 91 89 88 87 86 86 85 85 84 84 84 85 85 85 84 84 83 80 76 72 70 69 69 67 64 60 54 54 45 40
221 216 227 243 226 223 244 311 55 227 208 246 286 285 277 259 238 217 134 132 192 169 195 216 217 216 204 183 194 195 178 168 163 159 151 140 127 107 92 106 112 114 119 122 124 125 126 128 128 127 126 125 124 123 123 122 120 117 113 110 107 102 98 95 92 89 89 90 89 88 88 88 87 86 86 85 85 85 85 85 85 85 84 84 82 79 76 73 72 72 70 69 67 58 55 54 48
229 215 219 238 245 235 236 239 334 266 238 187 248 270 268 243 239 224 129 177 214 193 201 213 203 194 202 201 195 189 173 171 166 157 154 143 134 121 104 108 108 113 123 125 126 127 128 128 127 127 127 126 126 126 126 124 121 119 116 113 109 103 96 91 90 90 91 91 91 92 91 90 89 88 87 86 86 85 85 84 84 84 84 83 83 81 79 76 73 72 72 72 71 65 59 58 54
250 214 209 228 241 239 223 204 215 258 272 79 229 258 264 305 279 191 136 222 220 202 211 210 201 196 200 204 194 182 175 172 167 159 156 148 141 134 122 111 105 120 129 129 129 131 132 131 131 131 130 130 130 129 129 128 126 125 124 120 114 108 103 100 100 100 99 98 97 96 94 92 91 89 88 87 87 86 85 84 83 83 83 82 82 80 79 76 72 71 70 70 69 67 64 57 49
241 85 189 208 214 218 211 207 217 249 321 118 189 242 274 280 280 121 134 252 235 215 215 204 199 200 200 202 192 181 177 171 167 163 157 152 148 139 130 122 121 132 134 133 135 137 138 138 138 137 135 134 134 133 132 131 129 127 124 119 113 111 110 110 109 107 106 105 102 99 96 94 93 91 91 89 88 87 85 85 84 82 82 81 80 78 78 76 72 70 67 66 65 64 64 61 52
265 73 120 160 182 204 193 202 223 247 315 245 191 163 254 259 252 136 117 268 259 229 208 197 192 195 199 198 186 177 174 170 166 160 154 152 148 141 136 133 137 141 139 139 141 142 144 145 145 143 140 139 138 138 137 134 131 127 122 118 115 115 115 115 114 112 110 108 105 103 100 97 95 93 92 91 89 87 86 85 83 82 80 79 78 76 75 74 71 68 64 62 61 60 60 60 57
134 119 101 94 86 93 137 204 213 166 248 248 195 170 225 267 238 216 181 249 263 239 185 187 184 187 194 188 178 175 170 167 163 153 149 148 144 144 144 138 141 146 144 141 141 141 143 144 146 146 143 141 140 140 139 135 131 126 121 119 119 120 120 119 118 115 113 110 107 105 102 99 97 94 92 90 88 86 85 84 82 80 78 76 74 73 72 69 67 64 61 59 57 56 55 53 52
138 138 110 100 96 93 113 178 165 225 243 242 199 184 209 260 229 218 221 218 264 351 126 173 174 180 184 176 173 173 170 166 161 153 147 143 139 144 150 144 145 148 145 142 141 140 140 140 143 142 140 140 140 139 138 134 130 125 122 122 122 124 124 124 122 119 116 113 109 106 103 100 97 94 90 87 85 82 80 78 77 75 73 70 67 65 63 61 60 58 56 54 51 49 47 44 42
156 158 142 138 134 146 181 157 167 242 240 186 165 182 206 236 223 222 239 164 105 21 60 172 177 178 173 169 171 172 173 166 159 159 154 153 156 162 165 155 148 148 146 145 144 142 140 139 141 140 138 140 141 140 137 133 130 127 126 125 125 127 129 128 126 123 120 117 112 108 105 101 97 94 90 85 82 79 75 72 70 67 63 61 58 56 54 53 52 50 49 46 43 41 39 36 31
205 172 167 185 191 180 214 201 195 241 238 95 84 157 206 238 241 261 270 146 124 126 58 138 178 174 167 168 172 170 171 168 165 166 163 167 173 173 173 163 155 154 152 150 147 144 141 140 141 141 140 142 142 140 137 134 132 130 130 129 130 131 131 130 128 126 123 120 117 113 108 103 98 93 88 83 78 74 69 64 60 57 53 50 48 46 43 41 39 37 35 33 32 31 28 28 26
195 181 181 194 186 196 221 207 226 258 234 83 112 177 225 252 239 254 265 80 80 102 92 56 162 168 167 166 169 170 171 174 172 169 170 178 180 177 173 166 163 161 158 154 151 147 144 143 144 143 142 143 143 141 139 138 136 134 134 133 133 134 132 130 128 127 125 122 119 115 110 105 98 91 84 78 73 66 61 56 51 47 44 40 37 34 32 30 28 26 24 22 21 20 18 17 15
194 190 199 209 193 208 222 209 240 269 97 109 154 196 214 199 155 264 294 78 86 111 115 92 84 151 155 155 164 173 177 180 174 172 181 185 181 178 174 171 168 166 164 161 156 152 149 148 148 146 144 145 145 144 143 141 139 137 137 137 136 135 133 131 129 127 125 122 118 114 109 103 97 90 83 75 69 62 56 51 46 42 38 34 30 28 26 24 23 21 20 19 18 16 15 13 9
194 124 221 232 219 197 215 270 19 30 10 183 191 235 242 215 115 112 186 160 155 135 122 137 144 147 153 162 174 181 185 183 177 180 187 186 181 179 178 176 174 171 170 167 163 159 155 153 152 149 148 149 149 148 147 144 142 140 139 138 137 137 135 133 130 128 125 122 118 113 109 103 96 89 81 73 65 58 52 45 40 35 30 26 22 20 18 16 15 15 14 12 11 10 9 9 7
152 178 202 206 349 72 151 209 86 70 271 228 175 228 251 245 240 160 164 188 164 153 158 158 153 157 169 180 184 188 189 182 180 186 189 184 181 183 184 181 179 177 175 172 168 165 161 158 156 154 152 152 153 152 150 147 144 142 141 140 139 138 138 135 132 130 127 123 120 115 109 101 92 84 75 67 59 50 43 36 30 24 20 16 13 11 9 7 6 5 3 2 1 360 359 358 357
139 191 191 125 24 327 219 242 177 189 252 252 184 217 210 190 213 151 164 194 187 179 169 159 165 174 186 194 191 190 186 179 183 188 188 183 183 189 189 185 184 182 178 176 173 169 166 163 161 159 157 157 157 156 153 150 148 145 143 142 142 141 139 137 134 132 130 127 122 114 106 96 85 75 64 53 43 35 28 22 18 15 11 8 6 4 2 360 359 357 354 353 351 350 351 349 348
117 215 171 123 223 210 178 224 232 204 238 256 199 211 215 204 194 167 183 198 193 181 162 169 190 191 195 197 191 186 181 181 188 190 188 186 189 193 189 185 186 185 181 179 177 174 170 167 166 164 163 162 161 159 156 153 152 149 146 145 145 144 142 139 137 135 132 127 120 110 100 87 72 58 46 36 27 21 16 12 9 6 3 1 359 357 355 353 352 351 349 347 345 344 344 343 342
15 221 180 217 266 216 176 196 222 213 230 247 213 202 212 208 188 177 187 195 185 168 166 193 202 197 195 192 184 183 186 190 193 193 188 187 191 192 186 186 188 188 186 183 180 178 173 171 171 169 167 166 164 162 159 156 156 153 150 150 149 148 146 142 139 136 132 124 113 102 88 73 59 46 35 25 19 13 9 5 2 358 356 354 351 350 348 347 346 345 344 342 339 338 339 339 338
173 186 184 187 197 249 254 230 197 224 233 235 248 253 210 173 183 181 183 187 174 164 181 203 202 194 189 182 180 183 189 194 193 188 181 182 187 187 185 189 193 192 191 187 183 180 177 176 176 174 173 170 168 166 164 161 160 159 157 156 154 152 149 144 140 136 130 120 108 98 87 75 62 49 38 27 18 12 6 3 360 356 354 352 350 347 345 344 343 341 339 337 335 334 335 335 335
187 192 190 188 179 161 204 219 179 186 251 230 256 272 218 134 286 198 157 159 160 166 192 203 190 182 177 176 184 188 191 195 191 178 171 177 184 183 184 190 193 193 191 189 186 184 182 182 180 179 178 176 174 171 170 168 165 164 164 161 158 156 151 147 142 137 132 125 120 114 106 98 87 74 59 39 24 15 10 5 0 358 355 353 350 347 345 343 341 339 336 333 332 330 330 329 330